Regional Weather Roundup
Issued by NWS

Home | Current Version | Previous Version | Text Only | Print | Product List | Glossary On
Versions: 1 2 3 4 5 6 7 8 9 10 11 12 13 14 15 16 17 18 19 20 21 22 23 24 25 26 27 28 29 30 31 32 33 34 35 36 37 38 39 40 41 42 43 44 45 46 47 48 49 50
000
ASUS43 KTOP 011808
RWRKS

WEATHER ROUNDUP FOR KANSAS
NATIONAL WEATHER SERVICE GOODLAND KS
100 PM CDT FRI AUG 01 2014

NOTE:  "FAIR" INDICATES FEW OR NO CLOUDS BELOW 12,000 FEET WITH NO
SIGNIFICANT WEATHER AND/OR OBSTRUCTIONS TO VISIBILITY.

KSZ001>006-013>018-027>032-041>047-011900-
NORTHWEST KANSAS

CITY           SKY/WX    TMP DP  RH WIND       PRES   REMARKS
GOODLAND       SUNNY     86  49  27 MISG      30.20F
6HR MIN TEMP:  55; 6HR MAX TEMP:  86;

HAYS           SUNNY     86  52  30 N5        30.11S
HILL CITY      SUNNY     91  52  26 VRB6      30.12F
6HR MIN TEMP:  59; 6HR MAX TEMP:  91;

RUSSELL        SUNNY     88  53  30 N6G23     30.08F
6HR MIN TEMP:  60; 6HR MAX TEMP:  88;

$$

KSZ061>065-074>080-084>089-011900-
SOUTHWEST KANSAS

CITY           SKY/WX    TMP DP  RH WIND       PRES   REMARKS
DODGE CITY     SUNNY     85  52  32 NE10      30.14F
6HR MIN TEMP:  62; 6HR MAX TEMP:  86;

ELKHART          N/A     83  52  34 SE6         N/A
GARDEN CITY    SUNNY     83  56  39 NW6       30.16F
6HR MIN TEMP:  59; 6HR MAX TEMP:  83;

GREAT BEND       N/A     84  55  37 N6        30.08F
LIBERAL        SUNNY     82  54  36 N6        30.18F
PRATT          SUNNY     84  52  32 N8        30.11S
$$

KSZ066>073-081>083-090>101-011900-
SOUTHEAST KANSAS

CITY           SKY/WX    TMP DP  RH WIND       PRES   REMARKS
CHANUTE        MOSUNNY   81  64  56 S9        30.08F
6HR MIN TEMP:  62; 6HR MAX TEMP:  82;

COFFEYVILLE    MOSUNNY   79  65  62 S8        30.08F
6HR MIN TEMP:  66; 6HR MAX TEMP:  81;

HUTCHINSON     SUNNY     88  58  36 CALM      30.06F
6HR MIN TEMP:  63; 6HR MAX TEMP:  88;

MEDICINE LODGE   N/A     85  61  44 VRB5      30.08F
NEWTON         SUNNY     84  57  39 W7        30.10S
PARSONS        MOSUNNY   81  66  60 VRB6      30.09F
6HR MIN TEMP:  64; 6HR MAX TEMP:  82;

WICHITA INTL   MOSUNNY   85  59  41 SW9       30.06F
6HR MIN TEMP:  61; 6HR MAX TEMP:  85; 6HR PCP: TRACE;

WICHITA JABRA  SUNNY     85  61  44 SW14      30.06F
6HR MIN TEMP:  65; 6HR MAX TEMP:  85;

WICHITA MCCONL SUNNY     85  60  42 S10       30.07F
WINFIELD       MOSUNNY   83  66  56 SW8       30.09F
6HR MIN TEMP:  61; 6HR MAX TEMP:  84;

$$

KSZ007>012-019>026-033>040-048>060-102>105-011900-
NORTHEAST KANSAS

CITY           SKY/WX    TMP DP  RH WIND       PRES   REMARKS
CONCORDIA      SUNNY     84  54  35 N14G30    30.07R
6HR MIN TEMP:  61; 6HR MAX TEMP:  84;

EMPORIA        MOSUNNY   85  58  39 S7        30.05F
6HR MIN TEMP:  63; 6HR MAX TEMP:  86;

LAWRENCE       PTSUNNY   83  59  44 SE9G17    30.06F
6HR MIN TEMP:  65; 6HR MAX TEMP:  87;

MANHATTAN      SUNNY     85  61  44 SW10      30.03F
6HR MIN TEMP:  66; 6HR MAX TEMP:  85;

MARYSVILLE     SUNNY     82  61  47 SW3       30.04S
OLATHE IND     MOSUNNY   83  58  42 SE6       30.08F
6HR MIN TEMP:  66; 6HR MAX TEMP:  83;

OLATHE EXE     SUNNY     81  58  45 SE7       30.07F
6HR MIN TEMP:  67; 6HR MAX TEMP:  82;

SALINA         MOSUNNY   90  54  29 N14       30.05F
6HR MIN TEMP:  61; 6HR MAX TEMP:  91;

TOPEKA BILLARD MOSUNNY   87  60  40 SE9G22    30.04F
6HR MIN TEMP:  66; 6HR MAX TEMP:  87; 6HR PCP: TRACE;

TOPEKA FORBES  MOSUNNY   86  58  38 S9        30.05F
6HR MIN TEMP:  64; 6HR MAX TEMP:  87;

$$


USA.gov is the U.S. government's official web portal to all federal, state and local government web resources and services.